User: anonymous   Login
Location: Paris
(48.6709°N, 2.3750°E)
Time: 21:19:16
(UTC+02:00)
Language:

ISS - Orbit

View from above orbital plane
View from above orbital plane
View from above satellite
View from above satellite

Ground track
Ground track

The orbit data is extracted from the following two-line orbital elements,

1 25544U 98067A   24141.69237750  .00028426  00000-0  47562-3 0  9990
2 25544  51.6382  91.6341 0003332 188.4302 233.2889 15.51649364454280
Epoch (UTC): 20 May 2024 16:37:01
Eccentricity: 0.0003332
inclination: 51.6382°
perigee height: 409 km
apogee height: 414 km
right ascension of ascending node: 91.6341°
argument of perigee: 188.4302°
revolutions per day: 15.51649364
mean anomaly at epoch: 233.2889°
orbit number at epoch: 45428

The dashed part of the orbit path shows where the satellite is in the earth's shadow,  

DLR